Location: Poughquag
(41.6090°N, 73.6820°W)
Time: 12:07:03
(UTC-04:00)

Vanguard 1 - Pass Details

Date: 31 May 2020
Orbit: 650 x 3833 km, 34.2° (Epoch: 07 July)

Event Time Altitude Azimuth Distance (km) Brightness Sun altitude
Rises 12:56:00 0° 285° (WNW) 7,921 14.6 70.4°
Reaches altitude 10° 13:02:08 10° 278° (W) 6,943 14.5 70.3°
Maximum altitude 13:21:12 35° 223° (SW) 4,569 14.5 69.5°
Drops below altitude 10° 13:35:26 10° 164° (SSE) 5,175 14.1 68.5°
Sets 13:39:14 0° 155° (SSE) 5,777 14.2 68.1°
